Tracking 28790 objects as of 19-Apr-2024
HD Live streaming from Space Station
objects crossing your sky now

COSMOS 963

Track COSMOS 963 now!
10-day predictions
COSMOS 963 is classified as:


NORAD ID: 10491
Int'l Code: 1977-109A
Perigee: 1,190.2 km
Apogee: 1,211.7 km
Inclination: 82.9 °
Period: 109.3 minutes
Semi major axis: 7571 km
RCS: 3.0327 m2 (large)
Launch date: November 24, 1977
Source: Commonwealth of Independent States (former USSR) (CIS)
Launch site: PLESETSK MISSILE AND SPACE COMPLEX (PKMTR)
Your satellite tracking list
Your tracking list is empty




NASA's NSSDC Master Catalog

Two Line Element Set (TLE):
1 10491U 77109A   24109.91024781  .00000147  00000-0  34687-3 0  9990
2 10491  82.9281  79.8256 0014181 266.4953 153.5662 13.17621426231764
Source of the keplerian elements: AFSPC